Regional Weather Roundup
Issued by NWS Midland/Odessa, TX

Home | Current Version | Previous Version | Text Only | Print | Product List | Glossary On
Versions: 1 2 3 4 5 6 7 8 9 10 11 12 13 14 15 16 17 18 19 20 21 22 23 24 25 26 27 28 29 30 31 32 33 34 35 36 37 38 39 40 41 42 43 44 45 46 47 48 49 50
341
ASUS44 KMAF 241410
RWRMAF
MIDLAND AREA WEATHER ROUNDUP
NATIONAL WEATHER SERVICE MIDLAND TX
900 AM CDT WED AUG 24 2016

...IN SOUTHWEST TEXAS AND SOUTHEAST NEW MEXICO...

CITY           SKY/WX    TMP DP  RH WIND       PRES   REMARKS
ALPINE         CLOUDY    64  60  87 E9        30.31S
ANDREWS        NOT AVBL
ARTESIA        MOSUNNY   64  64 100 S6        30.15S
BIG SPRING     PTSUNNY   73  67  82 NW3       30.18R
CARLSBAD       CLOUDY    63  61  93 S13       30.15R
DRYDEN           N/A     73  67  81 NE9       30.13R
FORT STOCKTON  CLOUDY    69  60  73 NE6       30.19S
GUAD PASS      NOT AVBL
HOBBS          MOSUNNY   64  64 100 SE5       30.18R
MARFA          CLOUDY   N/A N/A N/A NE10      30.26S
MIDLAND AIRPK  MOSUNNY   69  65  85 NE3       30.16F
MIDLAND INTL   MOSUNNY   72  63  73 N8        30.15F
ODESSA         CLOUDY    69  63  81 NE8       30.15F
PECOS          PTSUNNY   65  63  92 SE6       30.16S
PRESIDIO       NOT AVBL
SEMINOLE       RAIN      66  63  89 CALM      30.15F
SNYDER           N/A     72  67  85 S10       30.15R
WINK           LGT RAIN  66  63  90 SE3       30.14S
$$
...OTHER STATIONS IN TEXAS...

CITY           SKY/WX    TMP DP  RH WIND       PRES   REMARKS
ABILENE        SUNNY     75  69  81 S13       30.13R
AMARILLO       CLOUDY    69  59  70 SW10      30.13S
AUSTIN         MOSUNNY   79  75  87 S15       30.12R
BROWNSVILLE    SUNNY     82  76  81 S9        30.10R
CORPUS CHRISTI MOSUNNY   83  78  85 S10       30.09R
DALLAS FTW     PTSUNNY   79  71  76 S16       30.10R
DEL RIO        CLOUDY    75  72  90 SE9       30.09R
EL PASO        PTSUNNY   69  64  84 SE5       30.15R
HOUSTON INT    MOSUNNY   83  78  85 S5        30.12R
LUBBOCK        LGT RAIN  65  61  87 SW14      30.12F
SAN ANGELO     CLOUDY    76  69  79 S12G20    30.12R
SAN ANTONIO    PTSUNNY   79  73  82 S10       30.13S
WACO           MOSUNNY   80  74  81 S13       30.12R
WICHITA FALLS  NOT AVBL
$$
...OTHER LOCATIONS IN NEW MEXICO...

CITY           SKY/WX    TMP DP  RH WIND       PRES   REMARKS
ALAMAGORDO     MOSUNNY   70  57  64 S8        30.17R
ALBUQUERQUE    CLOUDY    59  50  72 CALM      30.25R
CANNON AFB     CLOUDY    66  57  74 W14       30.17R
CLOVIS         CLOUDY    64  55  72 SW9G17    30.16S
HOLLOMAN AFB   CLOUDY    69  58  67 S10       30.15R
ROSWELL        MOSUNNY   65  62  90 S10       30.14F
RUIDOSO          N/A     57  50  77 CALM      30.32S
SANTA FE       MOSUNNY   56  50  80 N9        30.27R
TRUTH OR CONSE MOSUNNY   65  48  54 NW7       30.20R
TUCUMCARI      CLOUDY    67  58  72 SW12      30.13S
$$




USA.gov is the U.S. government's official web portal to all federal, state and local government web resources and services.